Goldsboro, NC

3:17 AM EDT on June 21, 2018 (GMT -0400)
Seymour Johnson Air Force Base

Weather History for KGSB - November, 2017

Change the Weather History Date:

Tuesday, November 14, 2017

  Actual Average Record
Temperature  
Mean Temperature 49 °F -  
Max Temperature 57 °F 62 °F 78 °F (1999)
Min Temperature 41 °F 41 °F 25 °F (2013)
Degree Days  
Heating Degree Days 16    
Moisture  
Dew Point 39 °F    
Average Humidity 76    
Maximum Humidity 93    
Minimum Humidity 51    
Precipitation  
Precipitation 0.00 in - - ()
Sea Level Pressure  
Sea Level Pressure 30.26 in    
Wind  
Wind Speed 7 mph (NNE)    
Max Wind Speed 17 mph    
Max Gust Speed 21 mph    
Visibility 10 miles    
Events      
Averages and records for this station are not official NWS values.
T = Trace of Precipitation, MM = Missing Value Source: NWS Daily Summary

Daily Weather History Graph

Daily Weather History Graph

Search for Another Location

Airport or City:

Astronomy

Nov. 14, 2017 Rise Set
Actual Time 6:46 AM EST 5:06 PM EST
Civil Twilight 6:19 AM EST 5:33 PM EST
Nautical Twilight 5:48 AM EST 6:03 PM EST
Astronomical Twilight 5:18 AM EST 6:33 PM EST
Moon 2:55 AM EST (11/14) 3:19 PM EST (11/14)
Length of Visible Light 11h 13m
Length of Day
10h 19m
Waning Crescent, 14% of the Moon is Illuminated
Nov 14
Waning Crescent
Nov 18
New
Nov 26
First Quarter
Dec 3
Full
Dec 10
Last Quarter

Hourly Weather History & Observations

Time (EST) Temp. Windchill Dew Point Humidity Pressure Visibility Wind Dir Wind Speed Gust Speed Precip Events Conditions
12:14 AM 44.6 °F 41.4 °F 41.0 °F 87% 30.29 in 10.0 mi NNE 5.8 mph - N/A   Overcast
12:38 AM 44.6 °F 40.2 °F 41.0 °F 87% 30.28 in 10.0 mi North 8.1 mph - N/A   Overcast
12:50 AM 44.6 °F 40.7 °F 41.0 °F 87% 30.28 in 10.0 mi NE 6.9 mph - N/A   Scattered Clouds
12:56 AM 44.2 °F 41.8 °F 41.2 °F 89% 30.28 in 10.0 mi NNE 4.6 mph - N/A   Scattered Clouds
1:56 AM 43.2 °F 41.5 °F 41.0 °F 92% 30.28 in 10.0 mi North 3.5 mph - N/A   Clear
2:56 AM 42.3 °F - 40.5 °F 93% 30.28 in 10.0 mi Calm Calm - N/A   Clear
3:56 AM 41.5 °F 39.6 °F 39.7 °F 93% 30.28 in 9.0 mi North 3.5 mph - N/A   Clear
4:41 AM 41.0 °F - 39.2 °F 93% 30.27 in 8.0 mi Calm Calm - N/A   Mostly Cloudy
4:56 AM 41.4 °F - 39.6 °F 93% 30.28 in 8.0 mi Calm Calm - N/A   Overcast
5:56 AM 42.4 °F 38.8 °F 39.9 °F 91% 30.28 in 10.0 mi NNE 5.8 mph - N/A   Overcast
6:32 AM 42.8 °F 38.6 °F 39.2 °F 87% 30.28 in 10.0 mi North 6.9 mph - N/A   Scattered Clouds
6:56 AM 42.3 °F 37.9 °F 39.6 °F 90% 30.29 in 10.0 mi North 6.9 mph - N/A   Partly Cloudy
7:56 AM 44.1 °F 39.5 °F 40.5 °F 87% 30.31 in 10.0 mi NNE 8.1 mph - N/A   Partly Cloudy
8:56 AM 47.5 °F - 40.3 °F 76% 30.31 in 10.0 mi North 12.7 mph 18.4 mph N/A   Clear
9:56 AM 50.7 °F - 40.1 °F 67% 30.30 in 10.0 mi NNE 17.3 mph - N/A   Clear
10:56 AM 53.1 °F - 39.9 °F 61% 30.30 in 10.0 mi North 16.1 mph - N/A   Clear
11:56 AM 55.4 °F - 39.9 °F 56% 30.26 in 10.0 mi North 13.8 mph - N/A   Clear
12:56 PM 56.3 °F - 38.5 °F 51% 30.24 in 10.0 mi North 11.5 mph 18.4 mph N/A   Clear
1:07 PM 57.2 °F - 39.2 °F 51% 30.24 in 10.0 mi NNE 13.8 mph - N/A   Clear
1:56 PM 55.4 °F - 38.5 °F 53% 30.23 in 10.0 mi North 11.5 mph 20.7 mph N/A   Clear
2:56 PM 54.5 °F - 37.2 °F 52% 30.21 in 10.0 mi North 13.8 mph - N/A   Clear
3:56 PM 52.7 °F - 37.4 °F 56% 30.21 in 10.0 mi North 11.5 mph - N/A   Clear
4:56 PM 50.7 °F - 38.1 °F 62% 30.22 in 10.0 mi NNE 9.2 mph - N/A   Clear
5:56 PM 49.5 °F - 39.0 °F 67% 30.23 in 10.0 mi NNE 6.9 mph - N/A   Scattered Clouds
6:56 PM 46.6 °F - 38.7 °F 74% 30.24 in 10.0 mi NE 3.5 mph - N/A   Clear
7:56 PM 45.7 °F 42.7 °F 38.5 °F 76% 30.25 in 10.0 mi North 5.8 mph - N/A   Mostly Cloudy
8:56 PM 44.8 °F 41.6 °F 38.7 °F 79% 30.26 in 10.0 mi North 5.8 mph - N/A   Overcast
9:56 PM 43.7 °F 39.1 °F 38.3 °F 81% 30.25 in 10.0 mi NNE 8.1 mph - N/A   Clear
10:56 PM 43.2 °F 38.4 °F 37.8 °F 81% 30.23 in 10.0 mi NNE 8.1 mph - N/A   Clear
11:56 PM 42.3 °F 38.6 °F 36.5 °F 80% 30.24 in 10.0 mi North 5.8 mph - N/A   Clear